DECAYED

STARLINK-5851, 55947 (Decayed)

Orbit data source: Space-Track

STARLINK-5851, 55947 was a payload satellite owned by SpaceX/Seattle (US) in LEO that was launched on Fri, 17 Mar 2023 UTC via an FALCON 9 launch vehicle from the Air Force Western Test Range (AFWTR). Payload-class satellites include a variety of spacecraft equipped with specific instruments for various scientific and technological missions. These include communications satellites like Starlink; space stations such as the ISS; scientific satellites like the Hubble; Earth observation satellites from companies like Planet Labs, Umbra, and HawkEye 360; GPS; miniature CubeSats for education and research; and military/defense satellites.

Not visible in the next 10 days
Identifier
55947, 2023-037AK
Orbit
Decayed
Country
Flag of USUS
Related business
Manufacturer
SpaceX/Seattle
Mission
Decayed Commercial Communications
Bus & Motor
STARLINK, Unknown motor
Mass
305 kg wet, ~290 kg dry
Launch date (UTC)
2023-03-17 (3 years ago)
Launch vehicle
FALCON 9
Launch site
Air Force Western Test Range (AFWTR)
Object type
Payload
Rocket body
Debris
Shape & HBR
Box + 1 Pan, 10.1 m
Radar Cross Section
11.087 m², Large (>1 m²)

Expand to show TLE details & history
Last TLE update: 2 months ago

TLE from 2 months ago
0 STARLINK-5851
1 55947U 23037AK  26126.48894191  .12171381  44331-5  19290-3 0  9994
2 55947  69.9746 115.2620 0014500 248.1310 111.8383 16.47224649173213
Epoch: 2026-05-06T11:44Z
TLE epoch observation values (Epoch: 2026-05-06T11:44:04.581Z)
Latitude
0.00001°
Longitude
74.89421°
Altitude
152.766 km
Speed
7.813 km/s
True Right ascension
07h 41m 02s
True Declination
0° 00' 00"
Sunlit
Object was in daylight at epoch
Visualization orbit readout
Latitude
Unknown
Longitude
Unknown
Altitude
Unknown
Speed
Unknown
Apparent Right ascension
Unknown
Apparent Declination
Unknown
Sunlit
N/A
Visualization observer readout
Local Sidereal Time
02:14:06
Azimuth
Unknown
Elevation
Unknown
Doppler factor
Unknown
Orbital elements
Apogee altitude
153.929 km
Perigee altitude
135.013 km
Semi-major axis
6,522.608 km
Eccentricity
0.00145
Inclination
69.9746°
RAAN
115.262°
Arg. of periapsis
248.131°
True anomaly
111.99243°
Mean anomaly
111.8383°
Eccentric anomaly
111.91538°
Mean motion
4.12013 °/min
Orbital period
87.38 mins
BSTAR
0.0001929
Loading maneuver chart data...
Computing Atmospheric mass density...
Loading historical data...
Loading historical data...
Loading historical data...
Loading historical data...
Loading historical data...
Loading historical data...
Loading historical data...

Documentation

Showing up to 5 results
|